Theta_e
325 326 327 327 326 325 324 324 323 322 319 317 317 316 316 317 318 319 319 318 317 317 317 316 315 315 314 315 316 316 316 316 316 316 315 316 316 316 317 318 319 319 319 321 323 324 325 327 324 320 319 319 320 320 319 322 324 326 328 330 331 331 331
326 326 327 328 328 326 325 324 324 323 321 319 317 316 316 316 317 318 319 318 317 317 317 316 315 314 314 314 315 316 316 316 316 316 316 316 316 316 316 316 317 317 317 318 320 320 321 324 323 321 319 318 320 319 317 319 322 324 326 329 330 331 331
326 326 327 328 328 328 326 325 324 324 323 321 318 316 316 316 316 317 318 317 317 317 317 316 315 314 314 314 315 315 316 316 316 316 316 315 315 315 316 316 316 316 317 317 318 318 318 319 320 320 318 318 319 318 316 316 320 323 325 327 326 327 328
326 327 327 328 328 329 328 326 325 325 325 323 320 317 316 316 316 315 316 316 316 317 317 316 316 315 314 314 315 315 315 315 316 315 315 315 315 314 315 315 315 316 316 317 317 317 317 318 319 319 317 316 318 318 316 316 317 321 324 325 324 323 324
327 327 328 329 329 330 329 328 327 325 325 324 321 318 316 316 316 315 314 315 316 317 316 316 316 316 315 315 315 315 315 315 315 315 315 315 314 313 314 314 315 316 316 317 317 317 317 316 317 318 317 316 317 317 316 316 317 319 322 323 323 322 321
329 328 328 329 329 330 330 330 328 326 326 326 324 321 318 316 316 315 314 314 315 316 316 315 315 316 315 316 315 315 314 314 314 314 315 315 315 314 314 315 315 315 316 316 316 317 317 316 316 317 317 316 317 317 316 317 317 318 319 320 323 323 320
330 329 329 330 330 331 330 330 330 328 327 326 325 323 320 317 316 316 315 315 315 315 316 315 315 316 315 316 316 316 315 315 315 315 315 315 315 315 316 316 315 315 316 316 315 316 316 317 317 317 317 317 316 316 316 317 317 318 319 318 322 324 320
330 330 330 330 331 331 331 331 330 329 327 326 325 324 321 318 317 317 316 315 315 315 315 315 315 315 315 315 316 316 316 316 315 315 315 314 314 314 315 316 315 315 316 315 315 315 315 316 317 317 317 317 317 316 317 318 317 318 319 317 320 322 319
331 331 330 331 331 331 331 331 330 329 328 326 325 324 322 319 318 318 317 316 315 315 315 316 316 315 315 315 315 315 316 316 316 315 315 314 314 314 314 315 315 314 316 316 315 315 315 316 318 318 318 317 318 319 319 318 318 318 318 319 319 320 320
332 332 331 331 331 331 331 331 330 329 329 328 326 324 323 320 318 318 317 316 315 315 315 315 316 316 316 316 315 315 315 316 316 316 316 316 316 315 314 315 315 314 315 315 314 314 314 316 318 317 317 318 318 319 320 319 319 318 319 320 320 320 320
331 331 332 331 331 331 331 330 330 329 329 329 327 325 324 322 320 319 318 316 315 315 315 315 316 316 316 316 316 316 315 316 316 316 316 316 316 316 316 316 315 315 315 315 314 314 314 316 317 315 315 318 319 319 319 319 319 318 318 319 320 319 318
330 330 330 330 330 330 330 330 330 330 329 329 328 326 324 322 321 320 320 318 316 316 315 315 315 315 316 316 316 316 316 316 316 316 316 316 316 316 316 316 315 315 315 315 315 314 314 315 316 315 314 316 319 320 319 318 318 318 318 318 318 317 316
328 328 328 329 329 329 329 329 330 329 329 329 329 327 325 324 322 321 321 319 318 317 316 315 315 315 315 315 316 316 316 316 316 315 315 315 316 316 316 316 315 314 315 315 315 314 315 314 314 314 314 315 317 319 319 318 319 319 317 316 317 316 315
327 327 327 327 328 327 327 328 328 328 329 329 329 328 327 326 324 323 322 320 319 319 318 316 315 315 315 315 315 316 316 316 315 315 314 314 314 315 316 316 315 314 314 315 315 314 315 315 314 314 314 314 315 318 319 318 319 319 317 315 315 315 315
327 327 327 327 327 326 326 327 327 327 328 328 329 329 327 327 326 325 323 321 320 320 319 317 316 315 315 315 315 315 315 315 315 315 314 313 313 313 314 315 315 315 314 314 315 314 315 315 315 315 315 314 314 316 318 318 318 318 317 315 314 314 315
326 327 327 327 327 327 326 326 326 326 327 327 328 328 328 327 327 326 324 322 321 320 319 318 317 316 315 315 315 315 315 315 315 315 314 313 311 312 312 313 314 314 314 314 314 315 314 314 315 315 315 315 314 315 317 317 317 317 317 316 315 315 315
326 326 326 326 326 326 326 326 326 326 326 326 327 327 327 327 327 327 325 323 322 322 320 319 318 317 316 316 315 315 315 315 315 314 314 313 312 312 312 311 311 313 314 314 314 314 314 313 313 314 315 315 314 314 315 316 316 316 316 316 316 315 315
326 326 326 326 326 326 326 326 326 326 326 327 327 327 328 327 327 327 326 324 323 322 321 319 319 318 318 317 316 315 315 315 314 315 314 314 313 312 312 311 310 311 313 314 314 314 314 313 313 314 314 314 314 314 314 314 315 315 315 316 315 314 312
326 326 325 325 325 324 324 324 325 325 326 326 327 328 328 329 328 328 326 325 324 323 322 319 319 320 320 319 318 316 315 314 315 314 314 314 314 313 313 311 310 310 313 314 314 314 314 314 314 313 313 314 314 314 314 314 315 314 314 314 314 312 309
326 326 325 324 323 323 323 323 324 324 325 326 326 328 329 329 329 328 327 326 326 324 322 320 320 320 320 320 319 317 315 315 315 314 314 314 314 313 313 313 310 309 312 314 314 314 314 314 313 313 313 313 314 314 314 314 314 314 313 311 311 310 309
326 325 325 323 322 322 323 323 324 324 324 324 325 327 328 329 329 328 328 327 327 325 322 321 321 321 321 320 319 318 317 316 315 315 315 314 314 314 313 314 312 309 310 312 313 313 314 313 312 312 313 314 314 314 314 314 315 314 313 311 310 310 309
325 325 324 322 321 322 322 323 324 324 322 321 322 324 326 328 329 329 328 327 326 325 323 321 321 321 321 320 320 319 318 317 316 315 315 315 314 314 314 314 314 310 309 311 313 313 313 313 312 313 314 314 314 314 314 314 315 314 313 312 311 310 309
325 325 323 321 321 322 322 323 323 324 323 320 319 320 323 325 327 327 327 326 325 324 322 321 321 321 321 321 321 320 319 318 317 316 315 315 315 315 314 315 315 312 309 309 312 313 312 313 313 314 314 314 314 314 314 314 315 314 313 312 311 310 310
324 324 322 321 321 321 321 322 322 324 324 323 321 320 320 322 323 323 323 323 322 322 321 321 321 321 321 321 320 321 320 318 318 316 316 315 315 315 315 315 315 314 311 308 309 312 312 312 313 313 312 313 313 314 314 314 315 314 313 312 311 311 310
323 323 323 322 321 320 320 320 322 323 324 324 323 322 321 320 320 320 321 321 321 321 321 320 321 321 321 321 320 320 320 319 318 318 317 316 316 316 316 315 316 315 314 310 308 309 311 312 313 312 311 311 311 311 312 312 314 314 314 313 312 312 311
324 323 324 323 321 321 320 320 321 321 322 323 324 324 323 322 321 321 321 321 321 321 321 320 321 320 321 321 321 321 320 320 320 319 318 317 317 316 317 316 316 316 316 313 309 308 310 311 312 312 311 310 310 310 311 311 312 313 314 314 313 312 311
323 323 323 323 322 322 320 320 320 320 320 321 322 324 324 323 323 323 322 322 322 322 322 321 321 321 321 321 321 321 321 320 320 320 319 319 318 318 317 317 317 317 317 315 311 309 309 310 311 311 311 310 310 311 311 311 312 312 313 314 313 313 312
323 322 323 323 322 322 321 320 320 320 320 320 321 322 322 322 323 323 323 323 323 323 322 322 322 322 322 321 321 321 321 321 320 320 320 319 319 318 318 318 317 317 317 317 314 310 309 310 310 310 310 311 311 311 311 312 312 312 313 313 313 313 312
322 322 322 322 322 322 321 321 320 320 320 320 320 320 320 321 321 321 322 323 323 323 322 321 322 322 322 322 321 321 321 321 321 320 320 320 320 319 319 318 318 317 317 317 316 313 310 309 310 310 310 311 311 311 311 311 312 312 312 313 313 314 312
322 323 322 322 322 321 321 321 321 320 320 320 320 320 320 321 321 321 321 321 322 322 321 320 320 321 321 321 321 321 321 321 321 320 320 320 320 319 319 319 318 318 317 317 317 316 312 310 309 310 310 311 311 311 311 311 311 311 312 313 313 313 312
322 323 322 322 322 321 321 321 321 321 320 320 320 320 320 320 320 321 321 320 321 320 320 320 320 320 320 320 320 321 321 321 320 320 320 320 320 320 319 319 319 319 318 318 318 317 315 311 309 310 311 311 310 310 311 311 310 311 312 313 314 313 311
321 321 321 322 322 322 322 321 321 321 320 320 320 320 320 320 320 320 320 320 320 320 320 321 320 320 320 320 320 320 320 320 320 320 320 320 320 319 319 319 319 319 319 318 318 317 317 313 310 309 310 310 310 310 311 310 310 310 312 313 313 311 309
321 321 321 321 321 321 321 321 321 320 320 320 320 319 319 319 319 320 320 320 320 320 320 320 320 320 320 319 320 320 319 319 319 319 319 319 319 319 319 319 319 319 319 319 318 317 317 316 313 310 309 309 310 310 311 311 310 310 311 311 311 309 308
323 322 321 321 321 321 321 320 320 320 319 319 319 319 319 319 319 321 321 320 320 320 320 320 320 320 320 320 320 319 319 319 319 319 319 318 318 318 318 319 319 319 319 319 318 318 317 317 316 313 310 309 310 310 311 310 310 311 311 310 309 308 307
324 323 322 321 321 321 321 321 320 320 319 319 318 318 318 318 318 319 320 320 319 319 319 319 319 319 320 320 320 320 318 319 319 319 318 318 318 318 319 319 319 319 319 319 318 318 317 317 317 315 313 311 310 310 310 310 310 311 311 311 309 308 308
324 323 323 322 321 321 322 321 321 320 319 318 318 318 318 318 317 318 319 319 319 319 319 319 319 319 320 320 320 319 319 318 319 319 318 319 319 319 320 320 320 320 320 320 319 319 318 317 316 316 315 313 311 310 310 310 311 311 312 311 310 309 308
322 322 322 321 321 321 321 321 321 320 320 318 318 317 318 318 317 317 317 319 320 321 321 320 320 320 320 319 319 319 319 319 319 319 319 319 319 320 320 320 320 321 320 320 319 319 318 318 317 316 317 315 312 310 310 311 311 311 312 312 310 309 309
Wind_Speed
7 6 5 5 6 7 8 8 8 7 7 6 5 6 6 8 8 7 6 6 7 8 8 9 9 9 9 9 9 9 10 10 11 12 13 13 13 13 12 11 10 11 11 10 6 4 2 2 8 12 15 18 13 14 19 17 18 20 18 14 10 9 9
8 7 6 6 6 8 9 9 8 8 7 7 6 5 5 6 7 7 6 6 7 7 6 7 7 8 9 8 8 9 10 10 11 12 13 13 13 13 13 12 11 11 13 14 12 10 6 2 2 4 11 17 14 14 18 16 15 18 19 17 12 9 10
9 8 7 7 7 7 9 9 8 8 8 7 6 5 4 4 5 6 6 6 6 7 6 6 7 7 7 8 8 8 9 10 10 11 12 12 13 13 13 13 13 12 10 10 11 10 7 3 2 2 6 9 9 14 19 17 13 15 18 18 17 15 13
9 9 9 9 8 8 8 8 8 8 8 7 6 6 5 4 3 5 5 5 5 6 6 6 6 6 6 6 7 7 7 8 9 10 10 10 10 11 12 13 13 12 9 6 6 8 6 3 2 2 5 9 7 10 17 18 12 12 15 16 18 19 18
10 10 10 10 9 8 8 8 9 9 9 8 7 7 6 5 3 3 3 3 4 5 5 5 6 6 6 6 6 6 5 6 6 7 7 8 9 9 9 10 11 11 10 8 7 7 6 4 3 1 5 9 7 8 15 16 11 9 13 14 15 18 19
11 11 11 11 10 9 9 8 9 9 9 10 9 9 7 6 5 3 2 2 3 4 4 4 4 5 6 6 5 4 4 4 4 4 5 6 7 7 7 8 9 9 10 9 8 8 6 5 5 3 5 8 4 7 13 14 12 9 9 12 12 13 18
13 12 12 12 11 10 10 9 9 9 10 10 10 10 8 7 6 4 4 4 3 4 3 3 3 3 4 5 5 4 3 3 2 3 4 5 5 6 6 7 8 8 8 9 8 9 8 7 6 3 4 6 4 6 8 10 13 9 7 13 10 9 16
14 14 14 13 12 11 11 10 10 10 10 10 10 9 8 8 7 5 5 5 5 5 5 4 3 3 3 4 5 5 4 4 2 1 2 3 3 4 5 6 7 7 7 8 7 7 8 8 7 5 3 3 3 4 3 6 11 8 9 16 11 8 16
14 14 14 13 12 11 11 11 10 10 10 11 10 10 10 10 9 6 6 6 6 6 6 6 5 5 4 4 5 5 5 5 4 3 2 1 2 2 3 4 5 6 6 6 6 7 7 7 6 6 4 1 2 4 2 3 6 5 10 16 11 10 17
14 14 14 13 12 11 11 11 11 11 11 11 11 11 11 12 11 9 7 7 7 8 8 8 8 7 7 6 6 6 6 6 6 6 5 5 5 4 4 4 3 4 5 5 4 4 6 6 5 6 6 2 2 3 2 3 3 2 8 15 10 11 18
13 13 13 12 11 11 11 11 11 12 12 12 12 12 12 12 12 11 10 8 8 9 9 9 10 9 9 9 8 8 8 8 9 9 8 8 7 6 6 6 5 4 3 4 3 2 4 5 6 6 6 3 2 2 1 2 3 3 7 12 12 13 18
11 12 11 11 11 11 11 11 12 13 13 13 14 13 13 13 14 13 12 10 9 10 10 10 11 11 12 12 11 11 10 9 11 11 10 10 9 8 8 7 6 5 4 4 3 1 2 3 5 6 5 3 3 2 1 1 1 3 6 10 12 14 16
10 10 10 10 11 11 11 12 12 13 14 15 16 16 14 13 15 15 14 12 11 11 12 12 12 12 13 13 13 13 12 11 12 12 11 11 11 10 10 9 7 6 5 5 4 3 3 3 4 6 5 4 3 2 1 1 2 5 9 10 12 13 14
11 11 11 12 12 12 12 13 13 14 15 16 18 18 16 13 14 16 16 15 13 13 13 13 13 13 14 15 15 15 14 13 13 13 12 11 10 10 11 11 9 7 6 5 5 4 3 4 4 4 5 5 4 3 2 1 2 5 8 12 14 14 14
13 13 13 13 14 14 14 14 14 15 16 17 19 19 18 15 13 15 16 16 15 14 14 14 14 14 15 15 16 16 15 15 14 14 13 11 9 9 10 11 11 9 7 6 6 6 4 4 5 5 5 6 6 4 3 3 3 4 7 12 16 15 14
14 15 15 16 16 15 15 15 15 15 16 16 18 19 19 17 15 15 16 16 16 15 14 15 15 16 16 16 16 16 16 16 16 15 14 12 10 9 10 11 11 11 10 9 8 7 6 6 6 7 7 7 7 6 4 5 5 5 6 10 13 15 14
16 17 17 17 17 18 17 17 16 16 16 15 16 17 18 19 18 17 17 17 17 16 16 15 15 16 17 17 17 17 17 17 17 16 15 13 11 10 11 11 11 10 11 11 9 8 7 7 7 8 8 8 7 6 6 7 7 6 6 8 11 14 14
18 18 18 18 18 18 18 18 18 18 17 16 16 15 16 17 18 18 18 19 18 18 17 17 16 15 15 16 17 18 17 17 17 17 16 15 14 12 12 12 11 9 10 11 11 10 9 9 9 9 10 10 8 8 8 8 8 7 7 8 11 13 14
19 19 18 17 17 16 16 16 17 18 18 17 16 15 15 16 17 18 18 19 19 19 18 18 18 16 15 16 17 17 17 17 17 17 17 16 15 14 13 12 11 10 10 11 12 11 10 10 11 10 11 11 10 9 9 8 8 8 8 9 10 11 13
20 19 17 16 16 15 14 14 15 15 16 16 16 16 15 15 17 18 19 20 20 20 19 19 19 18 17 17 17 18 18 18 18 18 18 17 16 16 14 12 12 11 11 12 12 11 11 11 11 11 11 12 11 11 10 9 9 9 10 10 10 10 11
20 18 17 16 16 16 15 14 14 13 13 15 16 16 16 16 17 18 19 20 21 20 20 20 20 19 18 18 18 18 18 19 19 19 19 19 18 17 16 14 12 12 12 13 13 12 12 12 12 12 12 12 11 11 11 11 10 11 11 11 11 11 11
19 18 18 17 16 16 16 16 15 14 13 14 15 15 16 17 17 19 20 20 21 21 21 22 21 21 21 20 19 19 19 20 21 21 21 20 19 18 17 16 14 13 12 13 14 14 13 13 13 13 13 11 11 11 12 12 12 13 13 12 13 13 12
18 18 18 16 16 16 16 17 17 17 16 15 15 16 16 17 18 19 20 21 22 22 23 23 23 22 22 22 21 21 21 21 21 22 22 22 22 21 19 18 15 13 13 14 15 15 14 13 12 13 12 12 12 13 13 14 14 14 12 12 13 12 11
18 19 18 17 16 16 16 17 19 19 19 18 18 18 18 19 20 21 21 22 23 23 24 24 24 23 22 22 22 22 22 21 21 22 23 24 24 23 21 19 17 15 14 14 16 17 16 14 14 14 14 14 13 14 14 16 16 15 13 13 13 12 11
20 20 20 19 18 17 17 18 19 21 21 22 21 21 21 21 22 23 23 24 24 25 25 25 24 24 23 23 23 23 23 22 22 23 24 24 25 24 22 21 19 17 16 14 15 18 18 18 17 16 16 15 15 15 16 17 18 18 16 15 14 15 14
22 22 22 22 21 20 20 21 21 22 23 23 24 24 25 25 25 25 26 26 27 28 27 26 25 25 25 25 24 25 25 25 25 25 24 25 25 25 24 22 21 20 18 16 15 17 19 20 20 19 18 17 17 18 18 18 19 19 19 18 17 17 17
23 23 24 24 24 24 24 24 23 23 24 24 25 26 27 28 28 28 29 29 30 30 30 29 28 27 27 27 27 27 28 28 28 27 27 26 26 26 25 24 23 22 20 18 17 17 19 21 21 21 21 20 20 19 19 19 20 20 21 20 19 19 18
25 24 24 25 26 27 27 27 26 26 26 26 26 27 27 28 29 30 31 31 31 32 32 32 31 30 30 29 29 29 30 30 30 30 30 29 29 28 28 27 26 24 22 20 19 18 19 21 22 23 22 22 21 20 20 20 20 19 20 20 20 20 19
27 26 25 26 27 28 29 30 29 29 28 28 28 28 28 29 30 31 31 32 32 33 32 32 31 31 31 30 31 32 32 33 32 32 32 32 31 31 30 29 28 27 26 24 21 19 19 21 23 24 24 24 23 22 21 20 19 18 17 17 19 19 18
28 28 28 28 28 29 30 31 31 31 30 30 30 31 31 31 31 32 32 32 33 33 33 31 30 31 31 30 30 32 33 34 34 34 34 34 33 33 33 32 31 30 29 27 24 22 20 22 24 25 25 25 24 23 22 20 18 17 16 15 17 18 18
28 29 30 30 30 31 31 32 33 32 31 32 32 32 32 32 32 32 33 33 34 34 34 32 31 31 31 30 30 30 31 33 34 35 36 36 36 36 35 34 33 32 32 31 28 25 22 23 25 26 27 26 25 25 23 19 17 16 15 14 16 17 18
28 29 30 31 31 32 33 33 34 33 33 33 33 32 31 30 30 31 33 34 34 34 35 34 33 32 32 31 30 28 29 31 32 33 35 36 37 37 37 36 35 35 34 33 32 29 26 25 26 27 27 26 25 26 25 20 17 15 14 14 15 17 17
29 29 30 31 32 32 33 33 33 34 33 33 32 32 31 28 26 27 31 34 35 35 35 35 34 33 32 32 31 29 28 29 31 33 34 35 35 36 36 37 37 36 36 35 34 32 30 28 27 27 27 27 27 28 25 20 17 15 14 15 15 17 17
29 30 30 30 31 31 32 32 33 33 32 31 30 30 30 29 26 26 28 31 34 35 35 34 33 32 30 29 30 30 29 29 31 32 31 31 33 34 36 37 36 35 35 35 35 34 33 31 29 28 29 29 29 28 25 21 18 15 15 16 16 17 18
25 27 28 28 28 29 29 29 30 30 29 28 27 27 28 28 28 28 28 29 31 34 34 33 32 31 28 26 29 32 31 29 30 29 26 29 34 36 36 37 35 33 33 32 33 33 33 32 32 31 30 30 29 27 25 22 20 17 17 18 18 19 20
23 22 24 24 24 26 27 27 27 26 25 25 24 25 26 26 25 26 27 28 30 32 32 31 30 29 28 28 31 35 34 31 28 27 26 30 35 36 36 36 34 32 31 30 31 31 30 30 33 34 32 30 29 28 26 24 23 21 21 21 20 21 22
21 20 19 18 18 21 23 24 24 23 22 21 20 22 23 23 22 22 24 26 27 27 26 27 26 25 25 27 29 32 33 32 30 30 31 33 34 35 35 34 32 29 29 29 30 29 27 27 30 32 32 30 29 29 28 27 26 24 23 23 23 24 25
Wind_Direction
292 298 303 294 285 280 281 291 301 301 299 302 318 337 350 351 348 350 354 2 7 8 14 20 23 28 30 32 41 49 55 57 57 60 57 50 47 44 47 61 64 57 55 61 74 66 76 292 341 358 357 357 9 22 22 24 28 30 26 24 23 22 22
282 283 282 286 286 282 282 285 291 295 297 292 295 317 337 345 346 345 346 352 357 0 9 16 20 28 32 32 39 47 52 57 60 61 61 56 53 48 44 50 55 52 52 57 63 64 67 38 352 349 345 351 352 356 9 17 26 33 33 34 33 24 24
275 275 276 283 289 289 287 284 283 286 292 290 281 290 313 331 343 345 345 348 347 347 359 9 13 21 32 37 39 42 47 55 60 58 56 54 53 51 48 50 51 48 47 46 48 52 55 43 19 330 338 351 336 334 352 3 16 34 39 43 43 37 33
273 272 273 279 287 290 291 288 284 282 288 290 272 267 284 302 330 348 349 348 340 338 348 4 11 10 18 31 33 33 41 52 57 53 50 48 45 44 45 49 51 51 52 47 38 41 48 41 11 341 335 340 324 321 343 353 2 30 41 45 47 41 36
269 269 271 276 282 285 290 292 287 282 284 286 271 259 265 275 289 331 346 345 335 333 342 359 11 9 5 13 24 31 41 52 53 47 47 45 42 42 40 42 46 48 52 56 49 41 40 33 19 354 331 340 333 324 341 351 355 19 37 40 42 38 33
268 267 268 272 275 279 284 287 283 278 279 281 274 266 263 266 271 282 310 323 319 319 331 347 3 9 3 358 2 16 32 43 41 39 43 42 39 41 36 32 34 40 49 53 46 33 30 27 23 13 338 340 327 322 340 351 353 1 26 29 32 30 23
268 268 269 270 274 278 280 281 279 273 271 272 272 269 261 255 263 272 280 289 292 291 300 318 332 348 355 350 343 342 348 356 14 34 42 40 35 33 27 24 29 36 46 49 39 25 21 14 11 15 344 335 312 315 331 344 351 354 0 6 18 20 10
270 271 271 272 274 275 276 277 276 270 267 267 268 265 250 242 251 263 268 275 280 279 282 286 289 298 318 332 331 327 322 316 317 346 45 44 36 33 25 21 27 33 42 50 41 20 15 7 2 6 353 338 320 325 325 335 350 356 350 355 7 11 2
269 270 271 271 271 271 273 275 275 273 270 267 265 258 244 239 244 254 262 267 270 275 280 279 275 273 277 298 310 310 311 305 297 289 278 301 327 355 6 5 16 21 26 40 40 24 11 0 2 7 0 344 318 335 344 331 345 357 354 356 360 357 360
267 268 269 269 270 270 271 272 273 273 271 268 264 257 247 242 243 249 257 260 263 269 276 277 276 271 265 273 288 297 304 301 294 291 283 285 293 295 300 310 335 1 7 10 20 19 3 359 18 20 8 5 314 322 344 345 332 309 348 357 354 343 354
267 268 269 270 269 269 268 266 266 268 270 269 266 260 253 247 245 249 253 256 260 264 270 273 274 274 271 270 277 285 295 298 296 296 292 288 290 288 289 295 297 301 323 339 348 354 345 3 27 19 8 13 344 301 270 330 328 290 331 352 354 346 348
268 269 270 270 269 267 265 263 264 266 269 270 265 257 253 251 248 248 251 254 257 260 265 270 271 273 274 273 276 279 284 292 293 296 297 293 290 285 283 290 297 292 287 300 317 316 299 331 359 357 359 16 4 318 247 240 315 315 323 336 344 350 348
263 265 268 269 268 267 266 264 264 266 267 269 265 256 253 256 251 247 249 253 256 259 261 264 268 270 272 275 276 277 279 284 286 290 296 295 290 283 277 279 291 296 287 281 288 295 274 279 314 333 344 356 4 353 316 212 243 309 327 334 339 349 350
258 260 263 264 264 265 265 264 264 266 266 268 267 258 253 260 258 249 248 249 254 260 261 261 265 268 271 274 276 277 277 277 280 284 290 294 294 288 279 274 277 287 288 272 271 285 281 271 287 308 324 331 342 345 316 268 243 293 328 342 342 345 350
256 257 258 260 262 264 266 267 268 269 269 268 268 261 255 258 262 254 248 246 250 258 261 259 261 264 269 274 277 280 279 275 275 278 283 288 295 296 287 277 272 275 279 271 266 271 278 282 285 293 309 320 327 324 300 291 279 266 304 326 330 332 341
256 257 257 257 259 262 264 267 269 271 273 272 271 266 258 255 259 257 248 246 249 253 257 260 260 261 265 270 276 280 282 278 273 274 277 280 287 293 291 284 276 271 270 268 264 263 274 290 289 286 294 307 315 316 304 298 293 274 287 311 321 326 334
257 257 258 259 260 262 264 265 267 269 271 273 272 271 264 256 255 256 249 246 249 249 252 257 258 260 263 266 271 276 279 277 271 271 274 276 278 285 288 287 283 275 266 260 256 259 269 283 288 286 287 292 298 303 304 298 293 289 287 298 314 325 332
260 260 262 265 265 267 268 268 269 269 269 270 270 271 269 259 253 252 247 244 246 248 249 251 254 259 263 266 268 270 272 272 269 268 270 272 272 277 283 287 286 278 263 252 248 255 264 271 280 287 288 287 285 287 294 295 292 294 289 291 307 323 333
261 264 267 268 267 267 271 272 272 271 269 268 266 266 267 260 252 250 246 242 245 248 248 248 252 258 264 267 266 265 265 265 265 265 266 267 268 271 278 285 286 275 260 250 248 252 258 265 275 284 287 287 283 280 284 289 290 293 298 303 308 318 333
260 265 269 267 263 263 266 270 273 275 273 270 267 263 262 257 252 250 248 244 244 247 248 249 253 258 263 265 263 261 262 262 263 263 263 264 265 266 273 282 284 275 259 250 250 252 256 264 273 279 280 281 279 277 280 284 286 289 296 307 310 313 325
257 263 267 263 258 261 264 265 269 275 273 268 264 262 261 258 254 251 249 246 246 248 249 251 254 258 261 261 260 260 261 262 263 263 262 263 263 264 269 277 281 277 264 253 251 252 256 264 272 274 274 274 274 276 280 282 282 286 292 297 301 306 314
254 258 261 257 254 258 263 264 264 266 267 264 259 258 258 258 256 253 251 249 249 249 249 251 253 257 260 261 262 264 265 265 264 264 263 263 262 262 266 272 276 277 268 256 250 251 257 265 271 272 270 269 270 275 281 282 280 283 289 292 295 303 310
253 253 254 254 252 254 260 264 262 260 261 262 259 255 254 254 254 253 252 251 251 251 252 253 255 257 260 262 265 268 269 267 264 263 262 262 262 262 265 268 273 275 270 257 248 249 255 260 262 266 267 267 269 275 280 282 280 280 282 284 290 298 302
253 249 250 255 255 254 256 258 259 259 258 259 259 256 253 251 250 250 251 251 252 252 254 256 257 259 260 261 263 265 266 266 264 262 262 261 262 263 264 266 268 270 270 261 250 247 249 251 250 256 264 266 269 274 276 277 278 277 275 276 282 288 288
254 248 247 252 256 255 255 254 255 256 256 257 258 256 254 252 250 250 250 251 253 254 255 257 259 260 261 260 261 261 261 262 263 263 262 261 262 263 264 265 265 266 268 266 257 248 245 246 248 253 260 264 267 273 275 274 274 273 272 272 276 281 284
255 250 247 250 253 254 255 255 255 256 256 258 257 256 256 255 254 253 251 252 254 255 257 258 259 260 261 260 260 260 260 261 262 263 263 262 262 262 263 263 262 263 266 266 261 252 244 243 247 251 257 262 267 272 275 275 273 270 269 269 271 277 285
255 253 251 250 251 253 254 255 257 257 258 258 257 257 258 258 258 258 256 255 257 259 260 261 261 260 260 260 260 260 260 261 261 263 263 263 262 261 261 261 260 261 264 264 261 255 247 243 244 249 256 261 266 271 274 276 275 269 265 264 267 276 286
256 255 254 252 251 252 254 255 257 257 257 257 257 259 261 262 263 263 262 261 260 262 266 267 266 263 261 261 260 260 260 260 259 260 261 262 262 261 260 260 259 259 261 261 260 256 250 244 243 248 255 260 264 269 273 276 278 274 267 264 267 275 284
258 258 258 255 253 254 255 256 257 257 257 257 258 259 260 262 264 265 266 265 263 265 270 273 272 269 267 264 261 259 259 258 257 258 259 260 260 260 260 259 257 257 257 258 259 257 252 247 245 247 252 258 263 268 272 276 279 278 270 264 267 274 281
263 263 260 257 256 257 258 259 260 259 257 257 258 259 259 261 262 264 265 265 263 265 270 274 274 274 273 269 264 260 258 257 256 255 257 258 259 259 259 259 257 257 256 256 256 255 251 247 246 247 250 256 262 268 271 274 276 274 268 263 266 271 278
268 266 263 260 259 259 259 261 262 262 260 259 261 262 263 264 264 264 264 264 265 265 269 273 274 273 274 273 267 262 260 257 255 255 256 257 257 257 258 259 258 256 256 257 256 253 250 246 245 247 250 255 261 266 269 271 273 270 264 262 264 268 273
274 270 266 265 264 263 263 263 264 263 262 261 263 265 265 265 268 271 270 268 267 265 267 273 275 272 273 274 269 265 262 256 253 255 256 256 256 256 256 258 258 256 256 258 256 252 249 246 245 246 249 251 256 263 267 269 269 265 258 256 260 264 269
281 276 273 271 270 268 267 266 266 265 264 262 263 264 262 261 266 276 279 275 272 269 268 272 276 276 276 275 271 266 259 254 254 255 256 255 255 256 257 257 258 258 257 258 257 254 249 246 246 246 247 247 251 258 264 266 266 262 253 250 255 261 267
286 281 279 277 275 273 271 270 269 269 268 266 264 263 263 258 256 262 272 275 274 272 271 272 276 279 280 281 281 272 258 253 256 256 255 257 257 257 258 259 260 261 260 260 259 256 251 246 245 245 246 246 250 256 261 264 265 260 252 250 254 260 269
296 289 285 282 278 277 278 275 273 272 271 269 267 265 264 261 255 256 265 272 275 276 277 276 276 278 278 278 278 273 264 260 259 253 253 261 261 259 260 262 263 265 265 264 263 260 255 249 245 244 246 248 251 255 256 258 260 256 250 250 254 260 269
307 299 296 293 286 284 285 282 278 276 273 270 266 264 262 260 258 261 267 272 277 281 284 284 281 281 277 271 267 268 268 268 264 253 250 256 259 260 262 264 265 267 267 266 264 262 258 250 244 243 245 247 250 252 252 252 252 251 248 249 252 259 267
319 314 311 310 302 296 295 292 289 286 282 276 269 264 264 263 260 261 266 272 278 284 289 290 289 288 285 278 271 267 268 270 270 262 255 254 258 260 261 264 267 270 269 267 266 264 261 253 245 242 244 246 248 250 249 247 247 246 245 245 248 255 263